CZ-6A DEB, 56672

Orbit data source: Space-Track

CZ-6A DEB, 56672 is space debris in SSO originally from a launch on Fri, 11 Nov 2022 UTC launched from the Taiyaun Space Center, China (TSC). Debris objects in space refer to the collection of defunct objects orbiting the Earth. Examples of debris include non-operational satellites, rocket bodies, and fragments generated from explosions, collisions, or faulty payload assembly.

Loading next visibility...
Identifier
56672, 2022-151AGY
Orbit
SSO
Country
Flag of CNCN / PRC
Related business
Manufacturer
SAST
Mission
Spacecraft
Bus & Motor
Unknown
Mass
Unknown
Launch date (UTC)
2022-11-11 (3 years ago)
Launch vehicle
Unknown
Launch site
Taiyaun Space Center, China (TSC)
Object type
Payload
Rocket body
Debris
Shape & HBR
Unknown shape, 0.1 m
Radar Cross Section
Small (<0.1 m²)

Expand to show TLE details & history
Last TLE update: 13 hours ago

TLE from 13 hours ago
0 CZ-6A DEB
1 56672U 22151AGY 26130.39817372  .00000212  00000-0  19889-3 0  9992
2 56672  98.8994  82.8172 0154364 219.0095 139.9847 13.86725454158990
Epoch: 2026-05-10T09:33Z
TLE epoch observation values (Epoch: 2026-05-10T09:33:22.209Z)
Latitude
-0.00004°
Longitude
71.27284°
Altitude
1,030.236 km
Speed
7.293 km/s
True Right ascension
05h 31m 16s
True Declination
0° 00' 00"
Sunlit
Object was in daylight at epoch
Visualization orbit readout
Latitude
Unknown
Longitude
Unknown
Altitude
Unknown
Speed
Unknown
Apparent Right ascension
Unknown
Apparent Declination
Unknown
Sunlit
N/A
Visualization observer readout
Local Sidereal Time
06:28:01
Azimuth
Unknown
Elevation
Unknown
Doppler factor
Unknown
Orbital elements
Apogee altitude
1,050.265 km
Perigee altitude
824.416 km
Semi-major axis
7,315.477 km
Eccentricity
0.01544
Inclination
98.8994°
RAAN
82.8172°
Arg. of periapsis
219.0095°
True anomaly
141.10543°
Mean anomaly
139.9847°
Eccentric anomaly
140.54672°
Mean motion
3.4688 °/min
Orbital period
103.78 mins
BSTAR
0.00019889
Loading maneuver chart data...
Computing Atmospheric mass density...
Loading historical data...
Loading historical data...
Loading historical data...
Loading historical data...
Loading historical data...
Loading historical data...
Loading historical data...

Documentation

Showing up to 5 results
|